Location: Sternwarte_Laufen
(47.9344°N, 12.9346°E)
Time: 18:39:08
(UTC+02:00)

ISS - Pass Details

Date: 12 October 2018
Orbit: 403 x 408 km, 51.6° (Epoch: 23 October)

Event Time Altitude Azimuth Distance (km) Brightness Sun altitude
Rises 19:10:47 0° 288° (WNW) 2,339 1.6 -8.3°
Reaches altitude 10° 19:13:07 10° 274° (W) 1,474 0.7 -8.7°
Maximum altitude 19:15:50 24° 219° (SW) 900 -1.6 -9.1°
Drops below altitude 10° 19:18:32 10° 164° (SSE) 1,466 -1.2 -9.6°
Sets 19:20:51 0° 149° (SSE) 2,321 -0.3 -10.0°
